contact:dominique.lefevre@mio.osupytheas.fr, maurice.libes@osupytheas.fr, didier.mallarino@osupytheas.fr
Project:EMSO http://www.emso-fr.org/EMSO-France
Depth: 2436.0 m
Title:EMSO Ligure Ouest : Data MII capteur MICROCAT
DateTime_Computer,Latitude,Longitude,Temperature,Conductivity,Pressure,DateTime_Instrument
DateTime_Computer,Latitude,Longitude,degC,S m-1,dbar,DateTime_Instrument
2022-10-28T00:00:13Z,42.805,6.029,13.3036,4.60103,2470.67,2022-10-28T02:02:10Z
2022-10-28T00:03:16Z,42.805,6.029,13.3049,4.60125,2470.684,2022-10-28T02:05:13Z
2022-10-28T00:06:19Z,42.805,6.029,13.3039,4.60076,2470.646,2022-10-28T02:08:16Z
2022-10-28T00:09:22Z,42.805,6.029,13.3046,4.60078,2470.646,2022-10-28T02:11:19Z
2022-10-28T00:12:25Z,42.805,6.029,13.3033,4.60067,2470.684,2022-10-28T02:14:22Z
2022-10-28T00:15:29Z,42.805,6.029,13.3028,4.60081,2470.67,2022-10-28T02:17:25Z
2022-10-28T00:18:32Z,42.805,6.029,13.3036,4.60105,2470.661,2022-10-28T02:20:28Z
2022-10-28T00:21:35Z,42.805,6.029,13.3030,4.60096,2470.624,2022-10-28T02:23:31Z
2022-10-28T00:24:38Z,42.805,6.029,13.3041,4.60090,2470.646,2022-10-28T02:26:34Z
2022-10-28T00:27:41Z,42.805,6.029,13.3039,4.60079,2470.646,2022-10-28T02:29:37Z
2022-10-28T00:30:44Z,42.805,6.029,13.3033,4.60079,2470.661,2022-10-28T02:32:40Z
2022-10-28T00:33:47Z,42.805,6.029,13.3034,4.60089,2470.646,2022-10-28T02:35:43Z
2022-10-28T00:36:50Z,42.805,6.029,13.3031,4.60091,2470.661,2022-10-28T02:38:47Z
2022-10-28T00:39:53Z,42.805,6.029,13.3035,4.60078,2470.67,2022-10-28T02:41:50Z
2022-10-28T00:42:56Z,42.805,6.029,13.3036,4.60117,2470.624,2022-10-28T02:44:53Z
2022-10-28T00:45:59Z,42.805,6.029,13.3039,4.60070,2470.624,2022-10-28T02:47:56Z
2022-10-28T00:49:02Z,42.805,6.029,13.3031,4.60097,2470.637,2022-10-28T02:50:59Z
2022-10-28T00:52:05Z,42.805,6.029,13.3051,4.60087,2470.624,2022-10-28T02:54:02Z
2022-10-28T00:55:09Z,42.805,6.029,13.3031,4.60081,2470.684,2022-10-28T02:57:05Z
2022-10-28T00:58:12Z,42.805,6.029,13.3039,4.60090,2470.624,2022-10-28T03:00:08Z
2022-10-28T01:01:15Z,42.805,6.029,13.3034,4.60101,2470.614,2022-10-28T03:03:11Z
2022-10-28T01:04:18Z,42.805,6.029,13.3023,4.60099,2470.614,2022-10-28T03:06:14Z
2022-10-28T01:07:21Z,42.805,6.029,13.3023,4.60087,2470.637,2022-10-28T03:09:17Z
2022-10-28T01:10:24Z,42.805,6.029,13.3026,4.60090,2470.637,2022-10-28T03:12:20Z
2022-10-28T01:13:27Z,42.805,6.029,13.3040,4.60075,2470.637,2022-10-28T03:15:23Z
2022-10-28T01:16:30Z,42.805,6.029,13.3025,4.60102,2470.646,2022-10-28T03:18:27Z
2022-10-28T01:19:33Z,42.805,6.029,13.3044,4.60091,2470.6,2022-10-28T03:21:30Z
2022-10-28T01:22:36Z,42.805,6.029,13.3042,4.60090,2470.646,2022-10-28T03:24:33Z
2022-10-28T01:25:39Z,42.805,6.029,13.3040,4.60084,2470.6,2022-10-28T03:27:36Z
2022-10-28T01:28:42Z,42.805,6.029,13.3046,4.60095,2470.6,2022-10-28T03:30:39Z
2022-10-28T01:31:45Z,42.805,6.029,13.3030,4.60085,2470.624,2022-10-28T03:33:42Z
2022-10-28T01:34:49Z,42.805,6.029,13.3035,4.60079,2470.577,2022-10-28T03:36:45Z
2022-10-28T01:37:52Z,42.805,6.029,13.3021,4.60084,2470.624,2022-10-28T03:39:48Z
2022-10-28T01:40:55Z,42.805,6.029,13.3026,4.60081,2470.624,2022-10-28T03:42:51Z
2022-10-28T01:43:58Z,42.805,6.029,13.3024,4.60081,2470.6,2022-10-28T03:45:54Z
2022-10-28T01:47:01Z,42.805,6.029,13.3034,4.60087,2470.624,2022-10-28T03:48:57Z
2022-10-28T01:50:04Z,42.805,6.029,13.3035,4.60084,2470.6,2022-10-28T03:52:00Z
2022-10-28T01:53:07Z,42.805,6.029,13.3027,4.60085,2470.6,2022-10-28T03:55:03Z
2022-10-28T01:56:10Z,42.805,6.029,13.3031,4.60104,2470.591,2022-10-28T03:58:07Z
2022-10-28T01:59:13Z,42.805,6.029,13.3029,4.60092,2470.624,2022-10-28T04:01:10Z
2022-10-28T02:02:16Z,42.805,6.029,13.3039,4.60081,2470.624,2022-10-28T04:04:13Z
2022-10-28T02:05:19Z,42.805,6.029,13.3024,4.60092,2470.553,2022-10-28T04:07:16Z
2022-10-28T02:08:22Z,42.805,6.029,13.3034,4.60078,2470.614,2022-10-28T04:10:19Z
2022-10-28T02:11:25Z,42.805,6.029,13.3033,4.60075,2470.624,2022-10-28T04:13:22Z
2022-10-28T02:14:29Z,42.805,6.029,13.3039,4.60088,2470.624,2022-10-28T04:16:25Z
2022-10-28T02:17:32Z,42.805,6.029,13.3031,4.60070,2470.6,2022-10-28T04:19:28Z
2022-10-28T02:20:35Z,42.805,6.029,13.3021,4.60084,2470.637,2022-10-28T04:22:31Z
2022-10-28T02:23:38Z,42.805,6.029,13.3031,4.60076,2470.6,2022-10-28T04:25:34Z
2022-10-28T02:26:41Z,42.805,6.029,13.3037,4.60094,2470.6,2022-10-28T04:28:37Z
2022-10-28T02:29:44Z,42.805,6.029,13.3028,4.60073,2470.591,2022-10-28T04:31:40Z
2022-10-28T02:32:47Z,42.805,6.029,13.3031,4.60097,2470.577,2022-10-28T04:34:43Z
2022-10-28T02:35:50Z,42.805,6.029,13.3039,4.60105,2470.614,2022-10-28T04:37:47Z
2022-10-28T02:38:53Z,42.805,6.029,13.3036,4.60108,2470.577,2022-10-28T04:40:50Z
2022-10-28T02:41:56Z,42.805,6.029,13.3029,4.60099,2470.591,2022-10-28T04:43:53Z
2022-10-28T02:44:59Z,42.805,6.029,13.3027,4.60096,2470.591,2022-10-28T04:46:56Z
2022-10-28T02:48:02Z,42.805,6.029,13.3036,4.60127,2470.6,2022-10-28T04:49:59Z
2022-10-28T02:51:05Z,42.805,6.029,13.3043,4.60090,2470.614,2022-10-28T04:53:02Z
2022-10-28T02:54:09Z,42.805,6.029,13.3030,4.60089,2470.577,2022-10-28T04:56:05Z
2022-10-28T02:57:12Z,42.805,6.029,13.3044,4.60091,2470.577,2022-10-28T04:59:08Z
2022-10-28T03:00:15Z,42.805,6.029,13.3037,4.60089,2470.591,2022-10-28T05:02:11Z
2022-10-28T03:03:18Z,42.805,6.029,13.3034,4.60067,2470.614,2022-10-28T05:05:14Z
2022-10-28T03:06:21Z,42.805,6.029,13.3031,4.60080,2470.577,2022-10-28T05:08:17Z
2022-10-28T03:09:24Z,42.805,6.029,13.3035,4.60095,2470.6,2022-10-28T05:11:20Z
2022-10-28T03:12:27Z,42.805,6.029,13.3028,4.60080,2470.614,2022-10-28T05:14:23Z
2022-10-28T03:15:30Z,42.805,6.029,13.3033,4.60075,2470.591,2022-10-28T05:17:27Z
2022-10-28T03:18:33Z,42.805,6.029,13.3026,4.60080,2470.6,2022-10-28T05:20:30Z
2022-10-28T03:21:36Z,42.805,6.029,13.3021,4.60074,2470.6,2022-10-28T05:23:33Z
2022-10-28T03:24:39Z,42.805,6.029,13.3024,4.60079,2470.6,2022-10-28T05:26:36Z
2022-10-28T03:27:42Z,42.805,6.029,13.3035,4.60072,2470.6,2022-10-28T05:29:39Z
2022-10-28T03:30:46Z,42.805,6.029,13.3038,4.60074,2470.591,2022-10-28T05:32:42Z
2022-10-28T03:33:49Z,42.805,6.029,13.3029,4.60084,2470.577,2022-10-28T05:35:45Z
2022-10-28T03:36:52Z,42.805,6.029,13.3029,4.60078,2470.6,2022-10-28T05:38:48Z
2022-10-28T03:39:55Z,42.805,6.029,13.3027,4.60076,2470.591,2022-10-28T05:41:51Z
2022-10-28T03:42:58Z,42.805,6.029,13.3035,4.60085,2470.614,2022-10-28T05:44:54Z
2022-10-28T03:46:01Z,42.805,6.029,13.3031,4.60071,2470.6,2022-10-28T05:47:57Z
2022-10-28T03:49:04Z,42.805,6.029,13.3022,4.60072,2470.591,2022-10-28T05:51:00Z
2022-10-28T03:52:07Z,42.805,6.029,13.3035,4.60082,2470.614,2022-10-28T05:54:04Z
2022-10-28T03:55:10Z,42.805,6.029,13.3028,4.60091,2470.614,2022-10-28T05:57:07Z
2022-10-28T03:58:13Z,42.805,6.029,13.3026,4.60077,2470.614,2022-10-28T06:00:10Z
2022-10-28T04:01:16Z,42.805,6.029,13.3033,4.60072,2470.553,2022-10-28T06:03:13Z
2022-10-28T04:04:19Z,42.805,6.029,13.3026,4.60074,2470.586,2022-10-28T06:06:16Z
2022-10-28T04:07:22Z,42.805,6.029,13.3034,4.60084,2470.563,2022-10-28T06:09:19Z
2022-10-28T04:10:26Z,42.805,6.029,13.3029,4.60098,2470.591,2022-10-28T06:12:22Z
2022-10-28T04:13:29Z,42.805,6.029,13.3036,4.60067,2470.624,2022-10-28T06:15:25Z
2022-10-28T04:16:32Z,42.805,6.029,13.3037,4.60076,2470.6,2022-10-28T06:18:28Z
2022-10-28T04:19:35Z,42.805,6.029,13.3030,4.60087,2470.577,2022-10-28T06:21:31Z
2022-10-28T04:22:38Z,42.805,6.029,13.3028,4.60089,2470.6,2022-10-28T06:24:34Z
2022-10-28T04:25:41Z,42.805,6.029,13.3029,4.60072,2470.624,2022-10-28T06:27:37Z
2022-10-28T04:28:44Z,42.805,6.029,13.3034,4.60062,2470.614,2022-10-28T06:30:40Z
2022-10-28T04:31:47Z,42.805,6.029,13.3028,4.60072,2470.6,2022-10-28T06:33:44Z
2022-10-28T04:34:50Z,42.805,6.029,13.3041,4.60080,2470.614,2022-10-28T06:36:47Z
2022-10-28T04:37:53Z,42.805,6.029,13.3030,4.60074,2470.6,2022-10-28T06:39:50Z
2022-10-28T04:40:56Z,42.805,6.029,13.3029,4.60069,2470.661,2022-10-28T06:42:53Z
2022-10-28T04:43:59Z,42.805,6.029,13.3025,4.60071,2470.577,2022-10-28T06:45:56Z
2022-10-28T04:47:02Z,42.805,6.029,13.3019,4.60088,2470.6,2022-10-28T06:48:59Z
2022-10-28T04:50:06Z,42.805,6.029,13.3028,4.60074,2470.624,2022-10-28T06:52:02Z
2022-10-28T04:53:09Z,42.805,6.029,13.3031,4.60065,2470.624,2022-10-28T06:55:05Z
2022-10-28T04:56:12Z,42.805,6.029,13.3025,4.60072,2470.624,2022-10-28T06:58:08Z
2022-10-28T04:59:15Z,42.805,6.029,13.3023,4.60069,2470.637,2022-10-28T07:01:11Z
2022-10-28T05:02:18Z,42.805,6.029,13.3023,4.60069,2470.624,2022-10-28T07:04:14Z
2022-10-28T05:05:21Z,42.805,6.029,13.3024,4.60074,2470.637,2022-10-28T07:07:17Z
2022-10-28T05:08:24Z,42.805,6.029,13.3019,4.60077,2470.637,2022-10-28T07:10:20Z
2022-10-28T05:11:27Z,42.805,6.029,13.3022,4.60074,2470.646,2022-10-28T07:13:24Z
2022-10-28T05:14:30Z,42.805,6.029,13.3024,4.60072,2470.67,2022-10-28T07:16:27Z
2022-10-28T05:17:33Z,42.805,6.029,13.3031,4.60064,2470.661,2022-10-28T07:19:30Z
2022-10-28T05:20:36Z,42.805,6.029,13.3034,4.60078,2470.67,2022-10-28T07:22:33Z
2022-10-28T05:23:39Z,42.805,6.029,13.3031,4.60074,2470.684,2022-10-28T07:25:36Z
2022-10-28T05:26:42Z,42.805,6.029,13.3024,4.60083,2470.646,2022-10-28T07:28:39Z
2022-10-28T05:29:46Z,42.805,6.029,13.3023,4.60077,2470.661,2022-10-28T07:31:42Z
2022-10-28T05:32:49Z,42.805,6.029,13.3022,4.60069,2470.646,2022-10-28T07:34:45Z
2022-10-28T05:35:52Z,42.805,6.029,13.3029,4.60072,2470.646,2022-10-28T07:37:48Z
2022-10-28T05:38:55Z,42.805,6.029,13.3024,4.60079,2470.684,2022-10-28T07:40:51Z
2022-10-28T05:41:58Z,42.805,6.029,13.3031,4.60064,2470.707,2022-10-28T07:43:54Z
2022-10-28T05:45:01Z,42.805,6.029,13.3030,4.60072,2470.67,2022-10-28T07:46:57Z
2022-10-28T05:48:04Z,42.805,6.029,13.3020,4.60067,2470.693,2022-10-28T07:50:01Z
2022-10-28T05:51:07Z,42.805,6.029,13.3027,4.60102,2470.717,2022-10-28T07:53:04Z
2022-10-28T05:54:10Z,42.805,6.029,13.3028,4.60074,2470.717,2022-10-28T07:56:07Z
2022-10-28T05:57:13Z,42.805,6.029,13.3025,4.60079,2470.73,2022-10-28T07:59:10Z
2022-10-28T06:00:16Z,42.805,6.029,13.3024,4.60083,2470.679,2022-10-28T08:02:13Z
2022-10-28T06:03:19Z,42.805,6.029,13.3024,4.60069,2470.74,2022-10-28T08:05:16Z
2022-10-28T06:06:22Z,42.805,6.029,13.3035,4.60072,2470.693,2022-10-28T08:08:19Z
2022-10-28T06:09:26Z,42.805,6.029,13.3026,4.60070,2470.754,2022-10-28T08:11:22Z
2022-10-28T06:12:29Z,42.805,6.029,13.3031,4.60074,2470.693,2022-10-28T08:14:25Z
2022-10-28T06:15:32Z,42.805,6.029,13.3032,4.60069,2470.74,2022-10-28T08:17:28Z
2022-10-28T06:18:35Z,42.805,6.029,13.3029,4.60074,2470.754,2022-10-28T08:20:31Z
2022-10-28T06:21:38Z,42.805,6.029,13.3021,4.60086,2470.74,2022-10-28T08:23:34Z
2022-10-28T06:24:41Z,42.805,6.029,13.3027,4.60087,2470.763,2022-10-28T08:26:37Z
2022-10-28T06:27:44Z,42.805,6.029,13.3029,4.60069,2470.73,2022-10-28T08:29:41Z
2022-10-28T06:30:47Z,42.805,6.029,13.3021,4.60078,2470.717,2022-10-28T08:32:44Z
2022-10-28T06:33:50Z,42.805,6.029,13.3035,4.60074,2470.74,2022-10-28T08:35:47Z
2022-10-28T06:36:53Z,42.805,6.029,13.3031,4.60069,2470.754,2022-10-28T08:38:50Z
2022-10-28T06:39:56Z,42.805,6.029,13.3036,4.60074,2470.74,2022-10-28T08:41:53Z
2022-10-28T06:42:59Z,42.805,6.029,13.3029,4.60066,2470.754,2022-10-28T08:44:56Z
2022-10-28T06:46:03Z,42.805,6.029,13.3028,4.60086,2470.8,2022-10-28T08:47:59Z
2022-10-28T06:49:06Z,42.805,6.029,13.3033,4.60081,2470.763,2022-10-28T08:51:02Z
2022-10-28T06:52:09Z,42.805,6.029,13.3031,4.60078,2470.787,2022-10-28T08:54:05Z
2022-10-28T06:55:12Z,42.805,6.029,13.3031,4.60078,2470.73,2022-10-28T08:57:08Z
2022-10-28T06:58:15Z,42.805,6.029,13.3021,4.60077,2470.763,2022-10-28T09:00:11Z
2022-10-28T07:01:18Z,42.805,6.029,13.3031,4.60067,2470.8,2022-10-28T09:03:14Z
2022-10-28T07:04:21Z,42.805,6.029,13.3035,4.60074,2470.8,2022-10-28T09:06:17Z
2022-10-28T07:07:24Z,42.805,6.029,13.3027,4.60082,2470.81,2022-10-28T09:09:21Z
2022-10-28T07:10:27Z,42.805,6.029,13.3028,4.60077,2470.787,2022-10-28T09:12:24Z
2022-10-28T07:13:30Z,42.805,6.029,13.3023,4.60079,2470.787,2022-10-28T09:15:27Z
2022-10-28T07:16:33Z,42.805,6.029,13.3032,4.60072,2470.81,2022-10-28T09:18:30Z
2022-10-28T07:19:36Z,42.805,6.029,13.3021,4.60080,2470.763,2022-10-28T09:21:33Z
2022-10-28T07:22:39Z,42.805,6.029,13.3024,4.60069,2470.787,2022-10-28T09:24:36Z
2022-10-28T07:25:43Z,42.805,6.029,13.3032,4.60074,2470.8,2022-10-28T09:27:39Z
2022-10-28T07:28:46Z,42.805,6.029,13.3029,4.60070,2470.777,2022-10-28T09:30:42Z
2022-10-28T07:31:49Z,42.805,6.029,13.3025,4.60080,2470.824,2022-10-28T09:33:45Z
2022-10-28T07:34:52Z,42.805,6.029,13.3034,4.60081,2470.787,2022-10-28T09:36:48Z
2022-10-28T07:37:55Z,42.805,6.029,13.3030,4.60069,2470.833,2022-10-28T09:39:51Z
2022-10-28T07:40:58Z,42.805,6.029,13.3019,4.60069,2470.81,2022-10-28T09:42:54Z
2022-10-28T07:44:01Z,42.805,6.029,13.3029,4.60077,2470.847,2022-10-28T09:45:57Z
2022-10-28T07:47:04Z,42.805,6.029,13.3031,4.60071,2470.81,2022-10-28T09:49:01Z
2022-10-28T07:50:07Z,42.805,6.029,13.3031,4.60080,2470.81,2022-10-28T09:52:04Z
2022-10-28T07:53:10Z,42.805,6.029,13.3029,4.60069,2470.824,2022-10-28T09:55:07Z
2022-10-28T07:56:13Z,42.805,6.029,13.3024,4.60081,2470.81,2022-10-28T09:58:10Z
2022-10-28T07:59:16Z,42.805,6.029,13.3026,4.60073,2470.847,2022-10-28T10:01:13Z
2022-10-28T08:02:19Z,42.805,6.029,13.3026,4.60075,2470.81,2022-10-28T10:04:16Z
2022-10-28T08:05:23Z,42.805,6.029,13.3041,4.60073,2470.824,2022-10-28T10:07:19Z
2022-10-28T08:08:26Z,42.805,6.029,13.3031,4.60075,2470.847,2022-10-28T10:10:22Z
2022-10-28T08:11:29Z,42.805,6.029,13.3032,4.60077,2470.81,2022-10-28T10:13:25Z
2022-10-28T08:14:32Z,42.805,6.029,13.3035,4.60084,2470.787,2022-10-28T10:16:28Z
2022-10-28T08:17:35Z,42.805,6.029,13.3029,4.60084,2470.833,2022-10-28T10:19:31Z
2022-10-28T08:20:38Z,42.805,6.029,13.3033,4.60070,2470.833,2022-10-28T10:22:34Z
2022-10-28T08:23:41Z,42.805,6.029,13.3040,4.60068,2470.847,2022-10-28T10:25:38Z
2022-10-28T08:26:44Z,42.805,6.029,13.3027,4.60078,2470.871,2022-10-28T10:28:41Z
2022-10-28T08:29:47Z,42.805,6.029,13.3026,4.60084,2470.857,2022-10-28T10:31:44Z
2022-10-28T08:32:50Z,42.805,6.029,13.3027,4.60078,2470.857,2022-10-28T10:34:47Z
2022-10-28T08:35:53Z,42.805,6.029,13.3026,4.60074,2470.81,2022-10-28T10:37:50Z
2022-10-28T08:38:56Z,42.805,6.029,13.3030,4.60068,2470.824,2022-10-28T10:40:53Z
2022-10-28T08:42:00Z,42.805,6.029,13.3029,4.60074,2470.824,2022-10-28T10:43:56Z
2022-10-28T08:45:03Z,42.805,6.029,13.3041,4.60072,2470.81,2022-10-28T10:46:59Z
2022-10-28T08:48:06Z,42.805,6.029,13.3041,4.60070,2470.833,2022-10-28T10:50:02Z
2022-10-28T08:51:09Z,42.805,6.029,13.3017,4.60067,2470.81,2022-10-28T10:53:05Z
2022-10-28T08:54:12Z,42.805,6.029,13.3034,4.60068,2470.81,2022-10-28T10:56:08Z
2022-10-28T08:57:15Z,42.805,6.029,13.3026,4.60076,2470.81,2022-10-28T10:59:11Z
2022-10-28T09:00:18Z,42.805,6.029,13.3041,4.60072,2470.857,2022-10-28T11:02:15Z
2022-10-28T09:03:21Z,42.805,6.029,13.3042,4.60084,2470.847,2022-10-28T11:05:18Z
2022-10-28T09:06:24Z,42.805,6.029,13.3030,4.60084,2470.871,2022-10-28T11:08:21Z
2022-10-28T09:09:27Z,42.805,6.029,13.3030,4.60074,2470.81,2022-10-28T11:11:24Z
2022-10-28T09:12:30Z,42.805,6.029,13.3039,4.60077,2470.847,2022-10-28T11:14:27Z
2022-10-28T09:15:33Z,42.805,6.029,13.3031,4.60075,2470.833,2022-10-28T11:17:30Z
2022-10-28T09:18:37Z,42.805,6.029,13.3041,4.60087,2470.824,2022-10-28T11:20:33Z
2022-10-28T09:21:40Z,42.805,6.029,13.3038,4.60086,2470.833,2022-10-28T11:23:36Z
2022-10-28T09:24:43Z,42.805,6.029,13.3031,4.60076,2470.824,2022-10-28T11:26:39Z
2022-10-28T09:27:46Z,42.805,6.029,13.3022,4.60079,2470.833,2022-10-28T11:29:42Z
2022-10-28T09:30:49Z,42.805,6.029,13.3027,4.60070,2470.857,2022-10-28T11:32:45Z
2022-10-28T09:33:52Z,42.805,6.029,13.3035,4.60080,2470.833,2022-10-28T11:35:48Z
2022-10-28T09:36:55Z,42.805,6.029,13.3029,4.60077,2470.81,2022-10-28T11:38:52Z
2022-10-28T09:39:58Z,42.805,6.029,13.3037,4.60081,2470.847,2022-10-28T11:41:55Z
2022-10-28T09:43:01Z,42.805,6.029,13.3024,4.60080,2470.847,2022-10-28T11:44:58Z
2022-10-28T09:46:04Z,42.805,6.029,13.3034,4.60079,2470.857,2022-10-28T11:48:01Z
2022-10-28T09:49:07Z,42.805,6.029,13.3031,4.60072,2470.847,2022-10-28T11:51:04Z
2022-10-28T09:52:10Z,42.805,6.029,13.3034,4.60084,2470.824,2022-10-28T11:54:07Z
2022-10-28T09:55:14Z,42.805,6.029,13.3032,4.60085,2470.847,2022-10-28T11:57:10Z
2022-10-28T09:58:17Z,42.805,6.029,13.3031,4.60087,2470.857,2022-10-28T12:00:13Z
2022-10-28T10:01:20Z,42.805,6.029,13.3031,4.60084,2470.847,2022-10-28T12:03:16Z
2022-10-28T10:04:23Z,42.805,6.029,13.3031,4.60076,2470.833,2022-10-28T12:06:19Z
2022-10-28T10:07:26Z,42.805,6.029,13.3036,4.60088,2470.833,2022-10-28T12:09:22Z
2022-10-28T10:10:29Z,42.805,6.029,13.3038,4.60076,2470.833,2022-10-28T12:12:25Z
2022-10-28T10:13:32Z,42.805,6.029,13.3037,4.60074,2470.81,2022-10-28T12:15:28Z
2022-10-28T10:16:35Z,42.805,6.029,13.3033,4.60071,2470.824,2022-10-28T12:18:32Z
2022-10-28T10:19:38Z,42.805,6.029,13.3024,4.60084,2470.763,2022-10-28T12:21:35Z
2022-10-28T10:22:41Z,42.805,6.029,13.3026,4.60075,2470.833,2022-10-28T12:24:38Z
2022-10-28T10:25:44Z,42.805,6.029,13.3033,4.60097,2470.81,2022-10-28T12:27:41Z
2022-10-28T10:28:47Z,42.805,6.029,13.3026,4.60079,2470.833,2022-10-28T12:30:44Z
2022-10-28T10:31:50Z,42.805,6.029,13.3029,4.60069,2470.81,2022-10-28T12:33:47Z
2022-10-28T10:34:54Z,42.805,6.029,13.3035,4.60072,2470.824,2022-10-28T12:36:50Z
2022-10-28T10:37:57Z,42.805,6.029,13.3034,4.60079,2470.847,2022-10-28T12:39:53Z
2022-10-28T10:41:00Z,42.805,6.029,13.3027,4.60089,2470.8,2022-10-28T12:42:56Z
2022-10-28T10:44:03Z,42.805,6.029,13.3026,4.60095,2470.8,2022-10-28T12:45:59Z
2022-10-28T10:47:06Z,42.805,6.029,13.3027,4.60080,2470.787,2022-10-28T12:49:02Z
2022-10-28T10:50:09Z,42.805,6.029,13.3030,4.60073,2470.81,2022-10-28T12:52:05Z
2022-10-28T10:53:12Z,42.805,6.029,13.3025,4.60084,2470.8,2022-10-28T12:55:09Z
2022-10-28T10:56:15Z,42.805,6.029,13.3043,4.60080,2470.81,2022-10-28T12:58:12Z
2022-10-28T10:59:18Z,42.805,6.029,13.3021,4.60076,2470.8,2022-10-28T13:01:15Z
2022-10-28T11:02:21Z,42.805,6.029,13.3036,4.60087,2470.777,2022-10-28T13:04:18Z
2022-10-28T11:05:24Z,42.805,6.029,13.3030,4.60067,2470.81,2022-10-28T13:07:21Z
2022-10-28T11:08:27Z,42.805,6.029,13.3029,4.60079,2470.787,2022-10-28T13:10:24Z
2022-10-28T11:11:31Z,42.805,6.029,13.3036,4.60068,2470.824,2022-10-28T13:13:27Z
2022-10-28T11:14:34Z,42.805,6.029,13.3021,4.60081,2470.8,2022-10-28T13:16:30Z
2022-10-28T11:17:37Z,42.805,6.029,13.3029,4.60076,2470.787,2022-10-28T13:19:33Z
2022-10-28T11:20:40Z,42.805,6.029,13.3026,4.60074,2470.777,2022-10-28T13:22:36Z
2022-10-28T11:23:43Z,42.805,6.029,13.3028,4.60081,2470.787,2022-10-28T13:25:39Z
2022-10-28T11:26:46Z,42.805,6.029,13.3031,4.60078,2470.81,2022-10-28T13:28:42Z
2022-10-28T11:29:49Z,42.805,6.029,13.3043,4.60078,2470.8,2022-10-28T13:31:46Z
2022-10-28T11:32:52Z,42.805,6.029,13.3056,4.60069,2470.8,2022-10-28T13:34:49Z
2022-10-28T11:35:55Z,42.805,6.029,13.3025,4.60083,2470.754,2022-10-28T13:37:52Z
2022-10-28T11:38:58Z,42.805,6.029,13.3026,4.60081,2470.777,2022-10-28T13:40:55Z
2022-10-28T11:42:01Z,42.805,6.029,13.3024,4.60096,2470.777,2022-10-28T13:43:58Z
2022-10-28T11:45:04Z,42.805,6.029,13.3029,4.60077,2470.8,2022-10-28T13:47:01Z
2022-10-28T11:48:08Z,42.805,6.029,13.3026,4.60108,2470.754,2022-10-28T13:50:04Z
2022-10-28T11:51:11Z,42.805,6.029,13.3038,4.60084,2470.763,2022-10-28T13:53:07Z
2022-10-28T11:54:14Z,42.805,6.029,13.3030,4.60076,2470.754,2022-10-28T13:56:10Z
2022-10-28T11:57:17Z,42.805,6.029,13.3026,4.60081,2470.74,2022-10-28T13:59:13Z
2022-10-28T12:00:20Z,42.805,6.029,13.3029,4.60094,2470.763,2022-10-28T14:02:16Z
2022-10-28T12:03:23Z,42.805,6.029,13.3028,4.60089,2470.74,2022-10-28T14:05:19Z
2022-10-28T12:06:26Z,42.805,6.029,13.3026,4.60079,2470.763,2022-10-28T14:08:23Z
2022-10-28T12:09:29Z,42.805,6.029,13.3041,4.60083,2470.763,2022-10-28T14:11:26Z
2022-10-28T12:12:32Z,42.805,6.029,13.3039,4.60079,2470.717,2022-10-28T14:14:29Z
2022-10-28T12:15:35Z,42.805,6.029,13.3029,4.60074,2470.787,2022-10-28T14:17:32Z
2022-10-28T12:18:38Z,42.805,6.029,13.3021,4.60073,2470.74,2022-10-28T14:20:35Z
2022-10-28T12:21:41Z,42.805,6.029,13.3021,4.60079,2470.707,2022-10-28T14:23:38Z
2022-10-28T12:24:45Z,42.805,6.029,13.3031,4.60086,2470.74,2022-10-28T14:26:41Z
2022-10-28T12:27:48Z,42.805,6.029,13.3026,4.60074,2470.777,2022-10-28T14:29:44Z
2022-10-28T12:30:51Z,42.805,6.029,13.3023,4.60074,2470.717,2022-10-28T14:32:47Z
2022-10-28T12:33:54Z,42.805,6.029,13.3029,4.60069,2470.74,2022-10-28T14:35:50Z
2022-10-28T12:36:57Z,42.805,6.029,13.3032,4.60081,2470.74,2022-10-28T14:38:53Z
2022-10-28T12:40:00Z,42.805,6.029,13.3038,4.60085,2470.73,2022-10-28T14:41:56Z
2022-10-28T12:43:03Z,42.805,6.029,13.3031,4.60071,2470.693,2022-10-28T14:45:00Z
2022-10-28T12:46:06Z,42.805,6.029,13.3034,4.60078,2470.754,2022-10-28T14:48:03Z
2022-10-28T12:49:09Z,42.805,6.029,13.3041,4.60074,2470.73,2022-10-28T14:51:06Z
2022-10-28T12:52:12Z,42.805,6.029,13.3029,4.60103,2470.73,2022-10-28T14:54:09Z
2022-10-28T12:55:15Z,42.805,6.029,13.3043,4.60063,2470.693,2022-10-28T14:57:12Z
2022-10-28T12:58:18Z,42.805,6.029,13.3031,4.60087,2470.74,2022-10-28T15:00:15Z
2022-10-28T13:01:22Z,42.805,6.029,13.3033,4.60087,2470.74,2022-10-28T15:03:18Z
2022-10-28T13:04:25Z,42.805,6.029,13.3026,4.60083,2470.754,2022-10-28T15:06:21Z
2022-10-28T13:07:28Z,42.805,6.029,13.3029,4.60074,2470.73,2022-10-28T15:09:24Z
2022-10-28T13:10:31Z,42.805,6.029,13.3034,4.60073,2470.707,2022-10-28T15:12:27Z
2022-10-28T13:13:34Z,42.805,6.029,13.3025,4.60067,2470.717,2022-10-28T15:15:30Z
2022-10-28T13:16:37Z,42.805,6.029,13.3032,4.60069,2470.693,2022-10-28T15:18:33Z
2022-10-28T13:19:40Z,42.805,6.029,13.3033,4.60092,2470.693,2022-10-28T15:21:37Z
2022-10-28T13:22:43Z,42.805,6.029,13.3046,4.60067,2470.717,2022-10-28T15:24:40Z
2022-10-28T13:25:46Z,42.805,6.029,13.3034,4.60087,2470.707,2022-10-28T15:27:43Z
2022-10-28T13:28:49Z,42.805,6.029,13.3040,4.60069,2470.684,2022-10-28T15:30:46Z
2022-10-28T13:31:52Z,42.805,6.029,13.3033,4.60066,2470.67,2022-10-28T15:33:49Z
2022-10-28T13:34:55Z,42.805,6.029,13.3024,4.60099,2470.693,2022-10-28T15:36:52Z
2022-10-28T13:37:59Z,42.805,6.029,13.3032,4.60091,2470.684,2022-10-28T15:39:55Z
2022-10-28T13:41:02Z,42.805,6.029,13.3023,4.60084,2470.717,2022-10-28T15:42:58Z
2022-10-28T13:44:05Z,42.805,6.029,13.3030,4.60079,2470.684,2022-10-28T15:46:01Z
2022-10-28T13:47:08Z,42.805,6.029,13.3034,4.60091,2470.717,2022-10-28T15:49:04Z
2022-10-28T13:50:11Z,42.805,6.029,13.3027,4.60079,2470.633,2022-10-28T15:52:07Z
2022-10-28T13:53:14Z,42.805,6.029,13.3034,4.60067,2470.67,2022-10-28T15:55:10Z
2022-10-28T13:56:17Z,42.805,6.029,13.3044,4.60062,2470.67,2022-10-28T15:58:14Z
2022-10-28T13:59:20Z,42.805,6.029,13.3026,4.60069,2470.67,2022-10-28T16:01:17Z
2022-10-28T14:02:23Z,42.805,6.029,13.3027,4.60102,2470.707,2022-10-28T16:04:20Z
2022-10-28T14:05:26Z,42.805,6.029,13.3029,4.60076,2470.67,2022-10-28T16:07:23Z
2022-10-28T14:08:29Z,42.805,6.029,13.3019,4.60083,2470.624,2022-10-28T16:10:26Z
2022-10-28T14:11:32Z,42.805,6.029,13.3028,4.60073,2470.646,2022-10-28T16:13:29Z
2022-10-28T14:14:36Z,42.805,6.029,13.3028,4.60086,2470.646,2022-10-28T16:16:32Z
2022-10-28T14:17:39Z,42.805,6.029,13.3034,4.60074,2470.661,2022-10-28T16:19:35Z
2022-10-28T14:20:42Z,42.805,6.029,13.3029,4.60082,2470.646,2022-10-28T16:22:38Z
2022-10-28T14:23:45Z,42.805,6.029,13.3029,4.60064,2470.661,2022-10-28T16:25:41Z
2022-10-28T14:26:48Z,42.805,6.029,13.3028,4.60068,2470.684,2022-10-28T16:28:44Z
2022-10-28T14:29:51Z,42.805,6.029,13.3019,4.60069,2470.684,2022-10-28T16:31:47Z
2022-10-28T14:32:54Z,42.805,6.029,13.3022,4.60062,2470.624,2022-10-28T16:34:51Z
2022-10-28T14:35:57Z,42.805,6.029,13.3026,4.60092,2470.661,2022-10-28T16:37:54Z
2022-10-28T14:39:00Z,42.805,6.029,13.3031,4.60085,2470.684,2022-10-28T16:40:57Z
2022-10-28T14:42:03Z,42.805,6.029,13.3031,4.60102,2470.624,2022-10-28T16:44:00Z
2022-10-28T14:45:06Z,42.805,6.029,13.3028,4.60060,2470.661,2022-10-28T16:47:03Z
2022-10-28T14:48:09Z,42.805,6.029,13.3036,4.60063,2470.637,2022-10-28T16:50:06Z
2022-10-28T14:51:13Z,42.805,6.029,13.3031,4.60061,2470.67,2022-10-28T16:53:09Z
2022-10-28T14:54:16Z,42.805,6.029,13.3024,4.60086,2470.646,2022-10-28T16:56:12Z
2022-10-28T14:57:19Z,42.805,6.029,13.3023,4.60084,2470.646,2022-10-28T16:59:15Z
2022-10-28T15:00:22Z,42.805,6.029,13.3030,4.60069,2470.646,2022-10-28T17:02:18Z